Regional Weather Roundup
Issued by NWS

Home | Current Version | Previous Version | Graphics & Text | Print | Product List | Glossary On
Versions: 1 2 3 4 5 6 7 8 9 10 11 12 13 14 15 16 17 18 19 20 21 22 23 24 25 26 27 28 29 30 31 32 33 34 35 36 37 38 39 40 41 42 43 44 45 46 47 48 49 50
000
ASUS43 KIND 070759
RWRIN

WEATHER ROUNDUP FOR INDIANA
NATIONAL WEATHER SERVICE INDIANAPOLIS IN
300 AM EST SUN FEB 07 2016

NOTE: "FAIR" INDICATES FEW OR NO CLOUDS BELOW 12,000 FEET WITH NO
SIGNIFICANT WEATHER AND/OR OBSTRUCTIONS TO VISIBILITY.

* - STATION DOES NOT REPORT WEATHER SUCH AS PRECIPITATION OR FOG.

+ - STATION NOT QUALITY CONTROLLED BY THE NATIONAL WEATHER SERVICE.
    USE DATA WITH CAUTION...ESPECIALLY DEWPOINT AND RELATIVE
    HUMIDITY OBSERVATIONS.

INZ001>003-010>013-019-020-070900-
NORTHWEST INDIANA

CITY           SKY/WX    TMP DP  RH WIND       PRES   REMARKS

$$

LMZ046-743>745-070900-
SOUTHERN LAKE MICHIGAN

STATION/POSITION TIME  TEMP    WIND        PRES    WAVE
                       AIR SEA DIR/SP/G            HT
                 (UTC) (F)     (DEG/KT/KT) (MB)    (FT)
BURNS HARBOR     0700   36     190/ 12/ 14 1017.9F
MICHIGAN CITY    0700   36     160/ 12/ 15   N/A

$$

INZ004-005-014>016-021>024-070900-
NORTH CENTRAL INDIANA

CITY           SKY/WX    TMP DP  RH WIND       PRES   REMARKS
GOSHEN         PTCLDY    34  26  72 S8        30.06S WCI  27
PERU/GRISSOM   CLEAR     32  26  79 SW10      30.07F WCI  24
SOUTH BEND     PTCLDY    31  26  82 S6        30.05F WCI  25

$$

INZ006>009-017-018-025>027-070900-
NORTHEAST INDIANA

CITY           SKY/WX    TMP DP  RH WIND       PRES   REMARKS
FORT WAYNE     PTCLDY    31  25  78 S9        30.09F WCI  23

$$

INZ028-029-035-036-043>045-051>053-070900-
WEST CENTRAL INDIANA

CITY           SKY/WX    TMP DP  RH WIND       PRES   REMARKS
GREENCASTLE +  CLEAR     37  18  44 SW7       30.13S
LAFAYETTE      CLEAR     32  24  72 CALM      30.10S
TERRE HAUTE    CLEAR     38  23  55 SW8       30.14S

$$

INZ030>032-037>040-046>048-054>057-064-065-070900-
CENTRAL INDIANA

CITY           SKY/WX    TMP DP  RH WIND       PRES   REMARKS
GREENWOOD *+   CLEAR     36  28  75 S7        30.14F
INDIANAPOLIS   CLEAR     33  23  66 SW8       30.12S WCI  26
-EAGLE CREEK   CLEAR     35  24  64 SW7       30.12F WCI  29
KOKOMO *+        N/A     34  27  75 S12       30.09F WCI  25
MT COMFORT *+  CLEAR     34  25  69 S9        30.13F WCI  26
SHELBYVILLE    CLEAR     35  25  66 S9        30.14F WCI  28

$$

INZ033-034-041-042-049-050-058-059-070900-
EAST CENTRAL INDIANA

CITY           SKY/WX    TMP DP  RH WIND       PRES   REMARKS
MUNCIE         CLEAR     37  25  61 SW8       30.11F

$$

INZ060-061-067>069-081>083-085>088-070900-
SOUTHWEST INDIANA

CITY           SKY/WX    TMP DP  RH WIND       PRES   REMARKS
EVANSVILLE     CLEAR     38  23  55 SW3       30.20F
HUNTINGBURG *+ CLEAR     36  21  55 S5        30.20F

$$

INZ062-063-066-070>080-084-089>092-070900-
SOUTH CENTRAL AND SOUTHEAST INDIANA

CITY           SKY/WX    TMP DP  RH WIND       PRES   REMARKS
BLOOMINGTON    CLEAR     39  23  52 SW8       30.15F
MADISON *+     CLEAR     30  27  86 CALM      30.20S
SEYMOUR +      CLEAR     30  25  80 CALM      30.17F

$$




USA.gov is the U.S. government's official web portal to all federal, state and local government web resources and services.